sat.trackr.live / text

‹ back to catalog

STARLINK-35213

NORAD 65638 · 2025-210S

PAYLOAD ACTIVE UNKNOWN

§ Identity

Operator
Country
US
Launch date
2025-09-18
Launch site
AFETR
Launch vehicle
Mass (kg)
RCS (m²)

Purposes: comms

External: N2YO · Heavens-Above · Gunter

§ Orbital elements

Epoch: 2026-05-25T04:01:09.672384Z

Period
93.85 min
Inclination
53.1599°
Eccentricity
0.0001533
Mean motion
15.34411308 rev/d
Perigee alt
461.6 km
Apogee alt
463.7 km
Semi-major
6,840.8 km
B*
1.0560e-3
RAAN
310.8927°
Arg perigee
87.8113°
Mean anomaly
272.3066°
Rev number
3,945

§ Raw data

STARLINK-352131 65638U 25210S   26145.16747306  .00035484  00000+0  10560-2 0  99972 65638  53.1599 310.8927 0001533  87.8113 272.3066 15.34411308 39459

JSON: /api/v1/satellites/65638 · /tle

For live sub-satellite position, see the globe view (requires WebGL).

§ Visibility from observer

Set your observer location to see the next 7 days of passes ≥ 10°. The values pass through the URL so the page stays shareable.

No JS? Fill the form by hand. The geolocation button needs JavaScript.